Regional Weather Roundup
Issued by NWS

Home | Current Version | Previous Version | Text Only | Print | Product List | Glossary On
Versions: 1 2 3 4 5 6 7 8 9 10 11 12 13 14 15 16 17 18 19 20 21 22 23 24 25 26 27 28 29 30 31 32 33 34 35 36 37 38 39 40 41 42 43 44 45 46 47 48 49 50
000
ASUS44 KLIX 240414
RWRLA
LOUISIANA WEATHER ROUNDUP
NATIONAL WEATHER SERVICE NEW ORLEANS LA
1100 PM CDT FRI JUN 23 2017

NOTE: "FAIR" INDICATES FEW OR NO CLOUDS BELOW 12,000 FEET WITH NO
      SIGNIFICANT WEATHER AND/OR OBSTRUCTIONS TO VISIBILITY.
      SKY/WX - SKY CONDITION AND SIGNIFICANT WEATHER.
      TMP - AIR TEMPERATURE.    DP   - DEWPOINT TEMPERATURE.
      RH  - RELATIVE HUMIDITY.  PRES - PRESSURE.
      HX  - HEAT INDEX.         WCI  - WIND CHILL INDEX.

*  THESE STATIONS ARE NOT NWS OR FAA STATIONS AND ARE NOT UNDER
   NWS QUALITY CONTROL.

LAZ040-048-061>063-065-066-069-240500-
SOUTHEAST LOUISIANA

CITY           SKY/WX    TMP DP  RH WIND       PRES   REMARKS
N.O. INTL ARPT MOCLDY    81  78  91 S7        29.97R
N.O. LAKEFRONT MOCLDY    82  78  88 S12       29.98R
N.O. DOWNTOWN*   N/A     84  78  82 S5          N/A  HX  95
RESERVE*       CLOUDY    82  79  89 S5        29.97R
SLIDELL        CLOUDY    82  79  90 S5        29.97R
BATON ROUGE    CLOUDY    82  78  88 S5        29.96R
BOOTHVILLE     PTCLDY    82  79  90 S12       29.99S
BELLE CHASSE   MOCLDY    81  80  97 S10       29.97R
BOGALUSA*      CLOUDY    77  73  86 S3        30.00R THUNDER
GALLIANO*      CLOUDY    82  75  81 S6        29.98S
NEW ROADS*       N/A     79  77  94 S5        29.96R
GONZALES*      CLOUDY    81  78  91 S7        29.95S
HAMMOND*       CLOUDY    81  77  89 S3        29.97R
HOUMA*         NOT AVBL
PORT FOURCHON* PTCLDY    82  77  83 S9G15     29.98S

$$

LAZ041-044-053-054-240500-
SOUTHWEST LOUISIANA

CITY           SKY/WX    TMP DP  RH WIND       PRES   REMARKS
LAKE CHARLES   CLEAR     81  81 100 CALM      29.93R
LAFAYETTE      MOCLDY    82  80  94 S6        29.95S
PATTERSON      CLOUDY    80  79  96 S6        29.97S
SALT POINT       N/A     82  78  88 VRB3      29.95R
NEW IBERIA     PTCLDY    81  78  91 S3        29.96R
CHENAULT AIRPK NOT AVBL

$$

LAZ027-028-240500-
CENTRAL LOUISIANA

CITY           SKY/WX    TMP DP  RH WIND       PRES   REMARKS
FORT POLK      CLEAR     80  77  91 SE7       29.94R
ALEXANDRIA INT MOCLDY    79  78  97 CALM      29.94R
ALEXANDRIA     MOCLDY    78  78 100 CALM      29.96R FOG

$$

LAZ001-002-240500-
NORTHWEST LOUISIANA

CITY           SKY/WX    TMP DP  RH WIND       PRES   REMARKS
SHREVEPORT     MOCLDY    82  79  90 SE3       29.91R
BARKSDALE AFB  PTCLDY    81  81 100 NE23      29.93R
DTN SHREVEPORT CLOUDY    84  77  79 NE21      29.93R

$$

LAZ014-016-240500-
NORTHEAST LOUISIANA

CITY           SKY/WX    TMP DP  RH WIND       PRES   REMARKS
MONROE         LGT RAIN  72  69  90 SW6       29.98S
TALLULAH       LGT RAIN  70  68  93 E7        29.97F

$$




USA.gov is the U.S. government's official web portal to all federal, state and local government web resources and services.